Weather History for Cut Bank, MT

Change the Weather History Date:

Monday, January 7, 2013

  Actual Average Record
Temperature  
Mean Temperature 32 °F 22 °F  
Max Temperature 39 °F 32 °F 62 °F (2003)
Min Temperature 24 °F 11 °F -39 °F (1909)
Degree Days  
Heating Degree Days 33 43  
Month to date heating degree days 252 304  
Since 1 July heating degree days 3777 3894  
Cooling Degree Days 0 0  
Month to date cooling degree days 0 0  
Year to date cooling degree days 0 0  
Moisture  
Dew Point 21 °F    
Average Humidity 65    
Maximum Humidity 81    
Minimum Humidity 48    
Precipitation  
Precipitation 0.00 in 0.01 in 0.27 in (1949)
Month to date precipitation T 0.05  
Year to date precipitation T 0.05  
Snow  
Snow 0.00 in - - ()
Snow Depth T in    
Sea Level Pressure  
Sea Level Pressure 29.73 in    
Wind  
Wind Speed 19 mph (WSW)    
Max Wind Speed 43 mph    
Max Gust Speed 48 mph    
Visibility 10 miles    
Events      
T = Trace of Precipitation, MM = Missing Value Source: NWS Daily Summary

Daily Weather History Graph

Daily Weather History Graph

Search for Another Location

Airport:

Trip Planner

Search our weather history database for the weather conditions in past years. The results will help you decide how hot, cold, wet, or windy it might be!

Date:

Astronomy

Jan. 07, 2013 Rise Set
Actual Time 8:20 AM MST 4:51 PM MST
Civil Twilight 7:44 AM MST 5:27 PM MST
Nautical Twilight 7:04 AM MST 6:07 PM MST
Astronomical Twilight 6:26 AM MST 6:45 PM MST
Moon 3:43 AM MST (1/7) 1:09 PM MST (1/7)
Length of Visible Light 9h 43m
Length of Day
8h 30m
Waning Crescent, 22% of the Moon is Illuminated
Jan 7
Waning Crescent
Jan 11
New
Jan 18
First Quarter
Jan 26
Full
Feb 3
Last Quarter

Hourly Weather History & Observations

Time (MST) Temp. Windchill Dew Point Humidity Pressure Visibility Wind Dir Wind Speed Gust Speed Precip Events Conditions
12:56 AM 30.0 °F 16.0 °F 21.0 °F 69% 29.87 in 10.0 mi WSW 25.3 mph 32.2 mph N/A   Overcast
1:56 AM 30.0 °F 16.9 °F 21.0 °F 69% 29.90 in 10.0 mi West 21.9 mph - N/A   Overcast
2:56 AM 28.9 °F 19.2 °F 21.9 °F 75% 29.91 in 10.0 mi WSW 11.5 mph - N/A   Overcast
3:56 AM 28.9 °F 16.5 °F 21.9 °F 75% 29.92 in 10.0 mi WSW 18.4 mph - N/A   Overcast
4:56 AM 28.9 °F 18.2 °F 21.9 °F 75% 29.93 in 10.0 mi West 13.8 mph - N/A   Overcast
5:56 AM 28.9 °F 17.7 °F 21.0 °F 72% 29.92 in 10.0 mi West 15.0 mph - N/A   Scattered Clouds
6:56 AM 25.0 °F 17.1 °F 19.9 °F 81% 29.91 in 10.0 mi WNW 6.9 mph - N/A   Clear
8:56 AM 28.9 °F 19.2 °F 18.0 °F 64% 29.87 in 10.0 mi WSW 11.5 mph - N/A   Clear
9:56 AM 34.0 °F 23.4 °F 19.9 °F 56% 29.82 in 10.0 mi WSW 17.3 mph 23.0 mph N/A   Clear
10:56 AM 36.0 °F 23.2 °F 19.9 °F 52% 29.78 in 10.0 mi WSW 28.8 mph 35.7 mph N/A   Clear
11:56 AM 37.0 °F 24.9 °F 19.9 °F 50% 29.73 in 10.0 mi WSW 27.6 mph 36.8 mph N/A   Clear
12:56 PM 37.9 °F 27.9 °F 19.9 °F 48% 29.69 in 10.0 mi SW 19.6 mph 24.2 mph N/A   Clear
1:56 PM 37.9 °F 26.8 °F 19.9 °F 48% 29.66 in 10.0 mi SW 24.2 mph 35.7 mph N/A   Scattered Clouds
2:56 PM 37.0 °F 27.4 °F 21.0 °F 52% 29.63 in 10.0 mi SW 17.3 mph - N/A   Overcast
3:56 PM 37.4 °F 25.6 °F 21.2 °F 52% 29.54 in 10.0 mi WSW 26.5 mph 33.4 mph N/A   Mostly Cloudy
4:56 PM 35.6 °F 22.3 °F 21.2 °F 56% 29.51 in 10.0 mi WSW 31.1 mph 48.3 mph N/A   Partly Cloudy
5:56 PM 36.0 °F 23.5 °F 21.9 °F 57% 29.57 in 10.0 mi WSW 27.6 mph 35.7 mph N/A   Clear
6:56 PM 35.1 °F 23.8 °F 24.1 °F 64% 29.59 in 10.0 mi WSW 20.7 mph 28.8 mph N/A   Partly Cloudy
7:56 PM 34.0 °F 25.0 °F 24.1 °F 67% 29.59 in 10.0 mi WSW 12.7 mph - N/A   Partly Cloudy
8:56 PM 33.1 °F 23.9 °F 21.9 °F 64% 29.59 in 10.0 mi West 12.7 mph - N/A   Scattered Clouds
9:56 PM 37.0 °F 25.6 °F 24.1 °F 59% 29.58 in 10.0 mi WNW 24.2 mph 31.1 mph N/A   Overcast
10:56 PM 34.0 °F 22.7 °F 24.1 °F 67% 29.62 in 10.0 mi NW 19.6 mph - N/A   Partly Cloudy
11:56 PM 30.9 °F 22.8 °F 23.0 °F 72% 29.64 in 10.0 mi WNW 9.2 mph - N/A   Partly Cloudy